EW8143 Sater SE current weather conditions

sailwx.info

Wind from 260 at 2 knots gusting 6

Air temperature 15.0° C
Dewpoint 8.5° C

Last reported at 2020-Jul-07 09:01 UTC.
Time now 2020-Jul-07 10:06 UTC

Location: N 60°25' E 015°35'.
View on Google Maps.

See reports from other nearby stations

  
Tides and Currents Weather Stations Pressure Air Temp Water Temp Dewpoint Dewpoint Depression Visibility Wind Speed Wind Dir Waves Ship Positions
date/time (UTC)wind fromknots sea level pressurealtimeterstation pressurevisibilityair tempwater tempwave heightnotes
2020-Jul-07 09:01 260 2 gusting 6 15.0
2020-Jul-07 08:46 237 2 gusting 7 13.9
2020-Jul-07 08:32 250 0 gusting 6 13.3
2020-Jul-07 08:16 245 1 gusting 7 13.3
2020-Jul-07 08:02 241 2 gusting 6 13.3
2020-Jul-07 07:46 235 2 gusting 8 12.8
2020-Jul-07 07:31 290 0 gusting 6 12.8
2020-Jul-07 07:16 253 1 gusting 8 12.8
2020-Jul-07 07:01 267 3 gusting 9 12.2
2020-Jul-07 06:45 295 3 gusting 8 11.7
2020-Jul-07 06:31 240 0 gusting 8 11.7
2020-Jul-07 06:15 260 1 gusting 6 11.1
2020-Jul-07 06:00 218 0 gusting 7 11.1
2020-Jul-07 05:46 252 2 gusting 7 10.6
2020-Jul-07 05:30 262 0 gusting 6 10.6
2020-Jul-07 05:15 238 0 gusting 6 10.6
2020-Jul-07 05:00 265 0 gusting 7 10.6
2020-Jul-07 04:48 231 0 gusting 6 10.6
2020-Jul-07 04:32 238 10.6
2020-Jul-07 04:16 227 1 gusting 6 10.6
2020-Jul-07 04:01 252 1 gusting 7 10.6
2020-Jul-07 03:46 227 1 gusting 6 10.0
2020-Jul-07 03:31 293 1 gusting 7 10.0
2020-Jul-07 03:17 229 2 gusting 7 10.0
2020-Jul-07 03:00 259 0 gusting 7 10.0
2020-Jul-07 02:46 245 10.0
2020-Jul-07 02:31 238 0 gusting 10 10.6
2020-Jul-07 02:16 262 4 gusting 11 10.6
2020-Jul-07 02:02 242 1 gusting 7 10.6
2020-Jul-07 01:45 229 1 gusting 6 11.1
2020-Jul-07 01:31 242 0 gusting 10 11.1
2020-Jul-07 01:16 254 4 gusting 10 10.6
2020-Jul-07 01:00 227 1 gusting 8 10.6
2020-Jul-07 00:45 254 1 gusting 6 10.6
2020-Jul-07 00:30 250 2 gusting 7 10.6
2020-Jul-07 00:15 227 2 gusting 8 10.6
2020-Jul-07 00:00 288 1 gusting 9 11.1
2020-Jul-06 23:45 211 0 gusting 7 11.1
2020-Jul-06 23:30 233 2 gusting 7 11.1
2020-Jul-06 23:15 259 1 gusting 9 11.1
2020-Jul-06 23:01 253 1 gusting 6 10.6
2020-Jul-06 22:46 233 11.1
2020-Jul-06 22:31 242 0 gusting 6 11.1
2020-Jul-06 22:16 250 1 gusting 6 11.1
2020-Jul-06 22:02 270 2 gusting 7 11.1
2020-Jul-06 21:46 270 2 gusting 7 11.1
2020-Jul-06 21:31 235 0 gusting 6 11.1
2020-Jul-06 21:16 240 11.1
2020-Jul-06 21:00 236 11.1
2020-Jul-06 20:46 237 3 gusting 12 11.1
2020-Jul-06 20:30 257 1 gusting 10 11.7
2020-Jul-06 20:16 239 1 gusting 6 11.7
2020-Jul-06 20:01 260 4 gusting 10 11.7
2020-Jul-06 19:45 300 2 gusting 8 11.7
2020-Jul-06 19:31 288 3 gusting 10 12.2
2020-Jul-06 19:15 235 12.2
2020-Jul-06 19:00 291 2 gusting 7 12.2
2020-Jul-06 18:46 254 0 gusting 8 12.2
2020-Jul-06 18:30 258 2 gusting 10 12.2
2020-Jul-06 18:15 219 12.8
2020-Jul-06 18:00 269 12.2
2020-Jul-06 17:45 229 0 gusting 8 12.8
2020-Jul-06 17:30 219 0 gusting 4 12.8
2020-Jul-06 17:15 173 12.8
2020-Jul-06 17:02 170 12.8
2020-Jul-06 16:47 177 12.8
2020-Jul-06 16:32 211 12.8
2020-Jul-06 16:16 204 12.2
2020-Jul-06 16:02 177 0 gusting 4 12.2
2020-Jul-06 15:46 162 12.2
2020-Jul-06 15:31 171 12.8
2020-Jul-06 15:16 176 2 gusting 6 12.8
2020-Jul-06 15:01 209 0 gusting 5 12.8
2020-Jul-06 14:46 162 12.8
2020-Jul-06 14:31 185 12.2
2020-Jul-06 14:16 168 1 gusting 6 12.2
2020-Jul-06 14:01 198 0 gusting 5 11.7
2020-Jul-06 13:46 219 11.7
2020-Jul-06 13:31 212 11.7
2020-Jul-06 13:16 260 12.2
2020-Jul-06 13:01 249 1 gusting 7 12.2
2020-Jul-06 12:46 215 0 gusting 6 12.2
2020-Jul-06 12:30 207 1 gusting 8 12.2
2020-Jul-06 12:15 234 12.2
2020-Jul-06 12:00 223 1 gusting 10 12.8
2020-Jul-06 11:45 177 12.8
2020-Jul-06 11:31 202 0 gusting 6 12.8
2020-Jul-06 11:16 265 13.3
2020-Jul-06 11:00 175 13.3
2020-Jul-06 10:45 205 0 gusting 5 12.8
2020-Jul-06 10:31 202 2 gusting 9 13.3
2020-Jul-06 10:15 215 2 gusting 8 13.9
2020-Jul-06 10:01 218 0 gusting 4 12.8
2020-Jul-06 09:45 176 12.2
2020-Jul-06 09:30 167 12.2
2020-Jul-06 09:15 206 2 gusting 6 12.8
2020-Jul-06 09:00 156 0 gusting 8 13.3
2020-Jul-06 08:45 181 1 gusting 6 12.8
2020-Jul-06 08:30 169 12.8
2020-Jul-06 08:15 171 1 gusting 7 12.8
2020-Jul-06 08:00 178 4 gusting 11 12.8
2020-Jul-06 07:45 153 3 gusting 13 13.3
2020-Jul-06 07:30 180 5 gusting 12 13.3
2020-Jul-06 07:15 162 2 gusting 8 12.8
2020-Jul-06 07:02 178 1 gusting 8 12.2
2020-Jul-06 06:47 175 1 gusting 9 11.7
2020-Jul-06 06:31 186 2 gusting 8 11.7
2020-Jul-06 06:16 171 1 gusting 6 11.7
2020-Jul-06 06:01 185 1 gusting 6 11.1
2020-Jul-06 05:46 164 1 gusting 8 11.7
2020-Jul-06 05:33 178 0 gusting 4 11.1
2020-Jul-06 05:16 179 2 gusting 6 11.7
2020-Jul-06 05:01 192 0 gusting 6 11.7
2020-Jul-06 04:46 167 11.7
2020-Jul-06 04:31 168 3 gusting 12 12.2
2020-Jul-06 04:16 141 2 gusting 8 12.2
2020-Jul-06 04:01 178 2 gusting 7 12.2
2020-Jul-06 03:45 159 0 gusting 8 12.2
2020-Jul-06 03:30 179 2 gusting 6 12.2
2020-Jul-06 03:15 175 0 gusting 8 12.2
2020-Jul-06 03:00 163 0 gusting 8 12.2
2020-Jul-06 02:45 157 1 gusting 8 12.2
2020-Jul-06 02:30 157 1 gusting 6 12.2
2020-Jul-06 02:15 150 0 gusting 5 12.2
2020-Jul-06 02:00 173 0 gusting 6 12.2
2020-Jul-06 01:45 178 1 gusting 6 12.2
2020-Jul-06 01:30 186 1 gusting 13 12.8
2020-Jul-06 01:15 173 0 gusting 8 12.8
2020-Jul-06 01:00 184 0 gusting 8 12.8
2020-Jul-06 00:45 171 0 gusting 11 12.8
2020-Jul-06 00:30 231 0 gusting 7 12.8
2020-Jul-06 00:15 192 1 gusting 6 12.8
2020-Jul-06 00:00 175 0 gusting 6 13.3
2020-Jul-05 23:46 165 13.3
2020-Jul-05 23:31 167 0 gusting 5 13.3
2020-Jul-05 23:16 191 0 gusting 5 13.3
2020-Jul-05 23:01 175 0 gusting 5 13.3
2020-Jul-05 22:46 181 12.8
2020-Jul-05 22:30 165 0 gusting 6 12.8
2020-Jul-05 22:16 144 1 gusting 6 12.8
2020-Jul-05 22:02 145 12.8
2020-Jul-05 21:46 171 0 gusting 3 12.8
2020-Jul-05 21:31 178 12.8
2020-Jul-05 21:16 167 1 gusting 4 12.8
2020-Jul-05 21:01 166 13.3
2020-Jul-05 20:46 171 13.3
2020-Jul-05 20:31 180 13.3
2020-Jul-05 20:16 180 2 gusting 8 13.3
2020-Jul-05 20:01 202 0 gusting 4 13.3
2020-Jul-05 19:46 186 13.3
2020-Jul-05 19:30 204 0 gusting 5 13.9
2020-Jul-05 19:16 209 2 gusting 8 13.9
2020-Jul-05 19:00 251 0 gusting 9 13.9
2020-Jul-05 18:45 194 14.4
2020-Jul-05 18:32 175 14.4
2020-Jul-05 18:16 178 1 gusting 6 15.0
2020-Jul-05 18:00 204 15.0
2020-Jul-05 17:31 225 1 gusting 9 15.6
2020-Jul-05 17:15 178 2 gusting 7 16.1
2020-Jul-05 17:01 198 0 gusting 7 16.1
2020-Jul-05 16:30 162 15.6
2020-Jul-05 16:15 088 15.6
2020-Jul-05 16:00 071 14.4
2020-Jul-05 15:45 032 13.9
2020-Jul-05 15:30 304 13.9
2020-Jul-05 15:15 059 13.9
2020-Jul-05 15:01 071 13.3
2020-Jul-05 14:45 071 13.3
2020-Jul-05 14:30 046 0 gusting 9 12.8
2020-Jul-05 14:15 035 2 gusting 9 12.8
2020-Jul-05 14:00 084 12.8
2020-Jul-05 13:45 091 1 gusting 10 12.8
2020-Jul-05 13:30 082 0 gusting 10 12.8
2020-Jul-05 13:17 069 0 gusting 10 13.3
2020-Jul-05 13:01 100 0 gusting 10 13.3
2020-Jul-05 12:47 048 0 gusting 6 13.3
2020-Jul-05 12:31 071 0 gusting 5 13.3
2020-Jul-05 12:16 067 0 gusting 11 13.3
2020-Jul-05 12:01 057 0 gusting 8 13.3
2020-Jul-05 11:46 045 1 gusting 8 13.3
2020-Jul-05 11:30 068 13.3
2020-Jul-05 11:15 059 1 gusting 8 13.9
2020-Jul-05 11:00 060 13.9
2020-Jul-05 10:45 063 13.9
2020-Jul-05 10:30 069 0 gusting 7 14.4
2020-Jul-05 10:15 085 14.4
2020-Jul-05 10:00 053 14.4